Вернуться в каталог

STARLINK-31968

АктивенСвязьVLEO
NORAD 59927·PAYLOAD·🇺🇸 United States

Запущен Jun 1, 2024 с Cape Canaveral Space Force Station

Loading…

Ближайшие Пролёты (ближайшие 24 часа)

TLE

СвежийSource: CelesTrak SupGP

Эпоха: Sep 14, 2026, 22:51 UTC

1 59927C 24106F   26257.95256944 -.00021700  00000+0 -78576-3 0  2575
2 59927  43.0039 343.3980 0002010 274.8425 358.8603 15.27597623    19

Отслеживайте STARLINK-31968 в реальном времени с AllMySat

Download on the App Store